Weather in Kurtan

Russia / Kurgan Oblast     55°46′50″N   67°12′01″E
temp.,
°C
wind,
m/s
gust,
m/s
humid.,
%
clouds,
%
prec.,
mm/h
press.,
hPa
HPBL,
m
27 september, mon
mon2723:00+3e8156293 0.0 1024640
02:00+1e8167198 0.0 1023556
05:00+1e81674100 0.0 1023612
08:00+1e9167151 0.0 1023765
11:00+6e11155073 0.0 10231207
14:00+8e101342100 0.0 10221561
17:00+7e101253100 0.0 10221408
20:00+4ene9146267 0.0 1023922
28 september, tue
tue2823:00+4e8136091 0.0 10231026
02:00+4ene81376100 0.0 1022766
05:00+4ene81371100 0.0 1022775
08:00+4ene81363100 0.0 1022989
11:00+7ene101248100 0.0 10211399
14:00+8ene91141100 0.0 10191595
17:00+7ene71142100 0.0 10191631
20:00+5ne71261100 0.0 1020717
29 september, wed
wed2923:00+5ne61170100 0.0 1019642
02:00+3nne5117698 0.0 1019334
05:00+2nne512869 0.0 1020287
08:00+2nne5118561 0.0 1020377
11:00+7nne675715 0.0 10211019
14:00+8nne6748100 0.1 10211715
17:00+6nne6764100 0.1 10221009
20:00+4nne587287 0.0 1023732
30 september, thu
thu3023:00+2nne368191 0.0 1024357
02:00+2n4691100 0.0 1023372
05:00+2n3694100 0.1 1024355
08:00+3n3584100 0.1 1024465
11:00+5n346598 0.1 10241125
14:00+7nnw3451100 0.1 10231416
17:00+7nnw344564 0.1 10221204
20:00+3nw22603 0.0 102320
1 october, fri
fri123:00+2w33620 0.0 102233
02:00+1w356852 0.0 102169
05:00+1w4865100 0.0 1020158
08:00+3w51171100 0.0 1019385
11:00+4w51092100 0.8 1018774
14:00+4nnw5997100 1.4 1019800
17:00+4n71070100 1.6 10211267
20:00+2n61067100 0.0 10251198